| time (UTC) | temp C | wind direction | speed KPH | gust KPH | rain 1hr cm | rain 24hr cm | rain mn cm | humidity % | barometer mb |
| 20260509014528 | 17 | 355 | 4.8 | 11.3 | 0.00 | 0.00 | 0.00 | 33 | 1007.1 |
| 20260509013026 | 17 | 44 | 3.2 | 9.7 | 0.00 | 0.00 | 0.00 | 32 | 1007.0 |
| 20260509011526 | 17 | 323 | 3.2 | 11.3 | 0.00 | 0.00 | 0.00 | 32 | 1006.9 |
| 20260509010026 | 17 | 33 | 3.2 | 8.0 | 0.00 | 0.00 | 0.00 | 31 | 1006.8 |
| 20260509004529 | 18 | 11 | 3.2 | 11.3 | 0.00 | 0.00 | 0.00 | 31 | 1006.8 |
| 20260509003025 | 18 | 23 | 1.6 | 8.0 | 0.00 | 0.00 | 0.00 | 31 | 1006.8 |
| 20260509001524 | 18 | 66 | 3.2 | 9.7 | 0.00 | 0.00 | 0.00 | 30 | 1006.9 |
| 20260509000023 | 18 | 305 | 3.2 | 12.9 | 0.00 | 0.00 | 0.00 | 30 | 1006.8 |
| 20260508234522 | 18 | 308 | 3.2 | 9.7 | 0.00 | 0.00 | 0.00 | 30 | 1006.9 |
| 20260508233022 | 18 | 80 | 3.2 | 8.0 | 0.00 | 0.00 | 0.00 | 29 | 1006.9 |
| 20260508231520 | 19 | 16 | 4.8 | 11.3 | 0.00 | 0.00 | 0.00 | 29 | 1006.8 |
| 20260508230018 | 19 | 22 | 6.4 | 14.5 | 0.00 | 0.00 | 0.00 | 28 | 1007.0 |
| 20260508224517 | 18 | 329 | 4.8 | 14.5 | 0.00 | 0.00 | 0.00 | 29 | 1007.0 |
| 20260508223035 | 19 | 316 | 6.4 | 14.5 | 0.00 | 0.00 | 0.00 | 28 | 1007.0 |
| 20260508221511 | 19 | 60 | 4.8 | 14.5 | 0.00 | 0.00 | 0.00 | 28 | 1006.9 |
| 20260508220013 | 19 | 38 | 1.6 | 14.5 | 0.00 | 0.00 | 0.00 | 28 | 1006.8 |
| 20260508214507 | 19 | 288 | 4.8 | 9.7 | 0.00 | 0.00 | 0.00 | 29 | 1006.8 |
| 20260508213018 | 20 | 58 | 4.8 | 11.3 | 0.00 | 0.00 | 0.00 | 28 | 1006.8 |
| 20260508211503 | 19 | 319 | 3.2 | 11.3 | 0.00 | 0.00 | 0.00 | 28 | 1006.7 |
| 20260508210002 | 19 | 16 | 3.2 | 16.1 | 0.00 | 0.00 | 0.00 | 28 | 1006.9 |
| 20260508204601 | 19 | 29 | 3.2 | 8.0 | 0.00 | 0.00 | 0.00 | 28 | 1006.7 |
| 20260508203108 | 18 | 326 | 1.6 | 14.5 | 0.00 | 0.00 | 0.00 | 29 | 1006.9 |
| 20260508201605 | 18 | 33 | 3.2 | 12.9 | 0.00 | 0.00 | 0.00 | 29 | 1006.8 |
| 20260508200058 | 18 | 39 | 4.8 | 14.5 | 0.00 | 0.00 | 0.00 | 29 | 1006.8 |
| 20260508194556 | 18 | 82 | 3.2 | 14.5 | 0.00 | 0.00 | 0.00 | 29 | 1006.9 |
| 20260508193102 | 18 | 50 | 4.8 | 12.9 | 0.00 | 0.00 | 0.00 | 28 | 1006.9 |
| 20260508191555 | 18 | 44 | 3.2 | 9.7 | 0.00 | 0.00 | 0.00 | 28 | 1006.9 |
| 20260508190052 | 18 | 50 | 4.8 | 12.9 | 0.00 | 0.00 | 0.00 | 28 | 1007.0 |
| 20260508184551 | 18 | 56 | 3.2 | 12.9 | 0.00 | 0.00 | 0.00 | 29 | 1007.0 |
| 20260508183048 | 18 | 60 | 1.6 | 11.3 | 0.00 | 0.00 | 0.00 | 30 | 1007.0 |
| 20260508181546 | 18 | 38 | 4.8 | 8.0 | 0.00 | 0.00 | 0.00 | 30 | 1007.0 |
| 20260508180043 | 17 | 316 | 3.2 | 11.3 | 0.00 | 0.00 | 0.00 | 31 | 1007.2 |
| 20260508174544 | 17 | 31 | 3.2 | 11.3 | 0.00 | 0.00 | 0.00 | 33 | 1006.9 |
| 20260508173038 | 17 | 56 | 3.2 | 14.5 | 0.00 | 0.00 | 0.00 | 33 | 1006.9 |
| 20260508171537 | 17 | 311 | 4.8 | 9.7 | 0.00 | 0.00 | 0.00 | 33 | 1006.8 |
| 20260508170035 | 17 | 143 | 3.2 | 11.3 | 0.00 | 0.00 | 0.00 | 33 | 1006.9 |
| 20260508164533 | 17 | 39 | 3.2 | 11.3 | 0.00 | 0.00 | 0.00 | 33 | 1006.9 |
| 20260508163034 | 16 | 107 | 4.8 | 11.3 | 0.00 | 0.00 | 0.00 | 33 | 1006.7 |
| 20260508161526 | 16 | 316 | 4.8 | 12.9 | 0.00 | 0.00 | 0.00 | 36 | 1006.6 |
| 20260508160025 | 15 | 355 | 6.4 | 14.5 | 0.00 | 0.00 | 0.00 | 39 | 1006.6 |
| 20260508154520 | 15 | 73 | 6.4 | 12.9 | 0.00 | 0.00 | 0.00 | 42 | 1006.5 |
| 20260508153017 | 14 | 60 | 4.8 | 8.0 | 0.00 | 0.00 | 0.00 | 43 | 1006.4 |
| 20260508151513 | 13 | 35 | 1.6 | 9.7 | 0.00 | 0.00 | 0.00 | 45 | 1006.3 |
| 20260508150033 | 13 | 54 | 3.2 | 9.7 | 0.00 | 0.00 | 0.00 | 46 | 1006.2 |
| 20260508144507 | 12 | 51 | 3.2 | 9.7 | 0.00 | 0.00 | 0.00 | 47 | 1006.0 |
| 20260508143007 | 12 | 35 | 1.6 | 8.0 | 0.00 | 0.00 | 0.00 | 49 | 1006.0 |
| 20260508141606 | 11 | 103 | 3.2 | 8.0 | 0.00 | 0.00 | 0.00 | 51 | 1005.9 |
| 20260508140107 | 11 | 92 | 0.0 | 4.8 | 0.00 | 0.00 | 0.00 | 52 | 1005.7 |
| 20260508134556 | 10 | 30 | 1.6 | 4.8 | 0.00 | 0.00 | 0.00 | 52 | 1005.7 |
| 20260508133106 | 10 | 37 | 0.0 | 1.6 | 0.00 | 0.00 | 0.00 | 57 | 1005.5 |
| 20260508131600 | 9 | 48 | 0.0 | 1.6 | 0.00 | 0.00 | 0.00 | 60 | 1005.5 |
| 20260508130058 | 8 | 37 | 0.0 | 3.2 | 0.00 | 0.00 | 0.00 | 60 | 1005.5 |
| 20260508124551 | 7 | 39 | 0.0 | 4.8 | 0.00 | 0.00 | 0.00 | 64 | 1005.6 |
| 20260508123050 | 6 | 31 | 0.0 | 3.2 | 0.00 | 0.00 | 0.00 | 67 | 1005.1 |
| 20260508121550 | 6 | 51 | 0.0 | 0.0 | 0.00 | 0.00 | 0.00 | 67 | 1004.7 |
| 20260508120049 | 6 | 52 | 0.0 | 0.0 | 0.00 | 0.00 | 0.00 | 67 | 1004.7 |
| 20260508114546 | 6 | 52 | 0.0 | 0.0 | 0.00 | 0.00 | 0.00 | 66 | 1004.6 |
| 20260508113043 | 6 | 52 | 0.0 | 0.0 | 0.00 | 0.00 | 0.00 | 65 | 1004.7 |
| 20260508111544 | 7 | 52 | 0.0 | 0.0 | 0.00 | 0.00 | 0.00 | 66 | 1004.7 |
| 20260508110041 | 6 | 52 | 0.0 | 0.0 | 0.00 | 0.00 | 0.00 | 67 | 1004.7 |
| 20260508104540 | 7 | 52 | 0.0 | 0.0 | 0.00 | 0.00 | 0.00 | 66 | 1004.8 |
| 20260508103044 | 7 | 52 | 0.0 | 1.6 | 0.00 | 0.00 | 0.00 | 65 | 1004.8 |
| 20260508101543 | 7 | 52 | 0.0 | 0.0 | 0.00 | 0.00 | 0.00 | 61 | 1004.8 |
| 20260508100037 | 8 | 44 | 0.0 | 1.6 | 0.00 | 0.00 | 0.00 | 58 | 1005.1 |
| 20260508094534 | 8 | 88 | 0.0 | 0.0 | 0.00 | 0.00 | 0.00 | 58 | 1005.5 |
| 20260508093036 | 8 | 88 | 0.0 | 0.0 | 0.00 | 0.00 | 0.00 | 57 | 1005.1 |
| 20260508091533 | 8 | 88 | 0.0 | 0.0 | 0.00 | 0.00 | 0.00 | 57 | 1005.1 |
| 20260508090036 | 7 | 88 | 0.0 | 0.0 | 0.00 | 0.00 | 0.00 | 59 | 1005.2 |
| 20260508084530 | 7 | 88 | 0.0 | 0.0 | 0.00 | 0.00 | 0.00 | 60 | 1005.2 |
| 20260508083029 | 7 | 88 | 0.0 | 0.0 | 0.00 | 0.00 | 0.00 | 60 | 1005.1 |
| 20260508081528 | 7 | 88 | 0.0 | 0.0 | 0.00 | 0.00 | 0.00 | 59 | 1005.0 |
| 20260508080044 | 7 | 88 | 0.0 | 0.0 | 0.00 | 0.00 | 0.00 | 58 | 1005.0 |
| 20260508074523 | 8 | 88 | 0.0 | 0.0 | 0.00 | 0.00 | 0.00 | 57 | 1005.1 |
| 20260508073020 | 8 | 88 | 0.0 | 0.0 | 0.00 | 0.00 | 0.00 | 56 | 1005.1 |
| 20260508071517 | 9 | 88 | 0.0 | 0.0 | 0.00 | 0.00 | 0.00 | 54 | 1005.1 |
| 20260508070020 | 10 | 88 | 0.0 | 0.0 | 0.00 | 0.00 | 0.00 | 52 | 1005.1 |
| 20260508064527 | 10 | 88 | 0.0 | 0.0 | 0.00 | 0.00 | 0.00 | 51 | 1005.1 |
| 20260508063007 | 11 | 88 | 0.0 | 0.0 | 0.00 | 0.00 | 0.00 | 49 | 1005.1 |
| 20260508061506 | 10 | 88 | 0.0 | 0.0 | 0.00 | 0.00 | 0.00 | 50 | 1005.4 |
| 20260508060004 | 11 | 88 | 0.0 | 0.0 | 0.00 | 0.00 | 0.00 | 48 | 1005.2 |
| 20260508054503 | 11 | 88 | 0.0 | 0.0 | 0.00 | 0.00 | 0.00 | 47 | 1005.3 |
| 20260508053002 | 12 | 88 | 0.0 | 0.0 | 0.00 | 0.00 | 0.00 | 45 | 1005.3 |
| 20260508051502 | 12 | 88 | 0.0 | 0.0 | 0.00 | 0.00 | 0.00 | 43 | 1005.2 |
| 20260508050002 | 12 | 88 | 0.0 | 0.0 | 0.00 | 0.00 | 0.00 | 43 | 1005.2 |
| 20260508044501 | 13 | 88 | 0.0 | 0.0 | 0.00 | 0.00 | 0.00 | 40 | 1005.0 |
| 20260508043108 | 13 | 88 | 0.0 | 0.0 | 0.00 | 0.00 | 0.00 | 40 | 1005.0 |
| 20260508041604 | 14 | 88 | 0.0 | 0.0 | 0.00 | 0.00 | 0.00 | 38 | 1004.9 |
| 20260508040112 | 15 | 88 | 0.0 | 0.0 | 0.00 | 0.00 | 0.00 | 35 | 1004.9 |
| 20260508034559 | 16 | 88 | 0.0 | 0.0 | 0.00 | 0.00 | 0.00 | 34 | 1004.9 |
| 20260508033059 | 17 | 88 | 0.0 | 1.6 | 0.00 | 0.00 | 0.00 | 32 | 1004.9 |
| 20260508031559 | 17 | 44 | 0.0 | 1.6 | 0.00 | 0.00 | 0.00 | 31 | 1004.9 |
| 20260508030058 | 18 | 37 | 0.0 | 6.4 | 0.00 | 0.00 | 0.00 | 30 | 1004.6 |
| 20260508024557 | 18 | 69 | 0.0 | 4.8 | 0.00 | 0.00 | 0.00 | 29 | 1004.5 |
| 20260508023056 | 19 | 39 | 0.0 | 8.0 | 0.00 | 0.00 | 0.00 | 29 | 1004.3 |
| 20260508021556 | 20 | 70 | 1.6 | 6.4 | 0.00 | 0.00 | 0.00 | 28 | 1004.3 |
| 20260508020058 | 20 | 61 | 1.6 | 8.0 | 0.00 | 0.00 | 0.00 | 28 | 1004.3 |